User: anonymous   Login
Location: Bernadets
(43.3537°N, 0.3167°E)
Time: 05:25:46
(UTC+00:00)
Language:

Cosmos 1844 Rocket - Orbit

View from above orbital plane
View from above orbital plane
View from above satellite
View from above satellite

Ground track
Ground track

The orbit data is extracted from the following two-line orbital elements,

1 17974U 87041B   22024.27396472 -.00000079  00000-0 -15450-4 0  9995
2 17974  71.0094 325.7156 0014667 335.6453 176.4303 14.17283008794764
Epoch (UTC): 24 January 2022 06:34:30
Eccentricity: 0.0014667
inclination: 71.0094°
perigee height: 824 km
apogee height: 845 km
right ascension of ascending node: 325.7156°
argument of perigee: 335.6453°
revolutions per day: 14.17283008
mean anomaly at epoch: 176.4303°
orbit number at epoch: 79476

The dashed part of the orbit path shows where the satellite is in the earth's shadow,  

DLR